Flag for Ireland Weather past 2 weeks in Limerick, Ireland

55 °F

Passing clouds.

Feels Like: 53 °F
Forecast: 50 / 59 °F
Wind: 8 mph from East

Location: Shannon Airport

Current Time: Oct 9, 2015 at 11:11:20 PM

Latest Report: Oct 9, 2015 at 10:00 PM

Visibility: N/A

Pressure: 30.09 "Hg

Humidity: 88%

Dew point: 52 °F

Location of LimerickLocation

Historic Weather in Limerick — Graph


Limerick temperature yesterday

Maximum temperature yesterday: 61 °F (at 3:00 PM)
Minimum temperature yesterday: 46 °F (at 12:00 AM)
Average temperature yesterday: 53 °F

Past Weeks' High & Low Weather Summary

High64 °F (Sep 28, 1:30 PM)100% (Sep 25, 7:30 AM)30.57 "Hg (Sep 25, 7:30 AM)
Low41 °F (Sep 30, 4:00 AM)59% (Sep 26, 4:00 PM)29.21 "Hg (Oct 6, 12:00 AM)
Average54 °F85%30.12 "Hg
* Reported Sep 24 10:00 PM — Oct 9 10:00 PM, Limerick, Weather by CustomWeather, © 2015

Note: Actual official high and low records may vary slightly from our data, if they occured in-between our weather recording intervals... More about our weather records


Limerick weather history for previous 24 hours

Time TempWeatherWind HumidityBarometerVisibility
10:00 PM
Fri, Oct 9
55 °FPassing clouds.8 mph88%30.09 "HgN/A
9:30 PM55 °FPassing clouds.9 mph88%30.09 "HgN/A
9:00 PM55 °FPassing clouds.9 mph88%30.09 "HgN/A
8:30 PM55 °FPartly cloudy.12 mph88%30.09 "HgN/A
8:00 PM55 °FPartly cloudy.12 mph88%30.09 "HgN/A
7:30 PM57 °FBroken clouds.12 mph82%30.09 "HgN/A
7:00 PM57 °FBroken clouds.12 mph82%30.09 "HgN/A
6:30 PM57 °FBroken clouds.8 mph82%30.09 "HgN/A
6:00 PM59 °FBroken clouds.7 mph77%30.09 "HgN/A
5:30 PM59 °FBroken clouds.10 mph77%30.07 "HgN/A
5:00 PM59 °FBroken clouds.12 mph77%30.07 "HgN/A
4:30 PM59 °FBroken clouds.10 mph77%30.07 "HgN/A
4:00 PM59 °FPartly sunny.10 mph82%30.07 "HgN/A
3:30 PM59 °FPartly sunny.7 mph82%30.07 "HgN/A
3:00 PM59 °FBroken clouds.12 mph82%30.07 "HgN/A
2:30 PM59 °FBroken clouds.12 mph82%30.07 "HgN/A
2:00 PM59 °FSprinkles. Broken clouds.15 mph82%30.07 "HgN/A
1:30 PM61 °FPartly sunny.14 mph72%30.07 "HgN/A
1:00 PM61 °FPartly sunny.14 mph72%30.07 "HgN/A
12:30 PM59 °FPartly sunny.13 mph82%30.07 "HgN/A
12:00 PM59 °FPartly sunny.15 mph82%30.07 "HgN/A
11:30 AM59 °FPartly sunny.13 mph82%30.07 "HgN/A
11:00 AM57 °FPartly sunny.13 mph88%30.07 "HgN/A
10:30 AM57 °FPartly sunny.9 mph88%30.07 "HgN/A
10:00 AM57 °FPartly sunny.10 mph88%30.07 "HgN/A
9:30 AM55 °FPartly sunny.10 mph94%30.07 "HgN/A
9:00 AM55 °FBroken clouds.9 mph88%30.07 "HgN/A
8:30 AM54 °FPartly cloudy.9 mph94%30.07 "HgN/A
8:00 AM54 °FPartly cloudy.10 mph94%30.07 "HgN/A
7:30 AM54 °FPassing clouds.9 mph94%30.07 "HgN/A
7:00 AM54 °FPassing clouds.10 mph94%30.07 "HgN/A
6:30 AM54 °FPartly cloudy.10 mph94%30.07 "HgN/A
6:00 AM54 °FPassing clouds.9 mph94%30.07 "HgN/A
5:30 AM54 °FPassing clouds.12 mph94%30.07 "HgN/A
5:00 AM54 °FPassing clouds.10 mph94%30.07 "HgN/A
4:30 AM54 °FPassing clouds.8 mph94%30.07 "HgN/A
4:00 AM54 °FPassing clouds.8 mph94%30.07 "HgN/A
3:30 AM54 °FPassing clouds.8 mph94%30.07 "HgN/A
3:00 AM54 °FPassing clouds.8 mph94%30.07 "HgN/A
2:30 AM54 °FPassing clouds.8 mph94%30.07 "HgN/A
2:00 AM54 °FPassing clouds.10 mph88%30.07 "HgN/A
1:30 AM54 °FPassing clouds.12 mph88%30.07 "HgN/A
1:00 AM54 °FPassing clouds.9 mph94%30.07 "HgN/A
12:30 AM54 °FPassing clouds.9 mph94%30.07 "HgN/A
12:00 AM54 °FPartly cloudy.12 mph94%30.09 "HgN/A
11:30 PM
Thu, Oct 8
54 °FPassing clouds.12 mph94%30.09 "HgN/A
11:00 PM54 °FPassing clouds.7 mph94%30.09 "HgN/A
Weather by CustomWeather, © 2015

See weather overviewHow to use our weather pages